Location: *
(46.1866°S, 178.5290°W)
Time: 15:26:46
(UTC+00:00)

CZ-4B R/B - Pass Details

Date: 27 September 2021
Orbit: 809 x 881 km, 99.1° (Epoch: 24 October)

Event Time Altitude Azimuth Distance (km) Brightness Sun altitude
Rises 08:49:05 0° 180° (S) 3,375 6.8 -28.4°
Reaches altitude 10° 08:52:27 10° 202° (SSW) 2,432 6.3 -28.8°
Maximum altitude 08:55:20 15° 235° (SW) 2,099 6.1 -29.2°
Drops below altitude 10° 08:58:12 10° 267° (W) 2,421 6.2 -29.6°
Sets 09:01:33 0° 290° (WNW) 3,350 6.7 -30.0°
